Location: Waco, TX
(31.5480°N, 97.1670°W)
Time: 02:56:33
(UTC-05:00)

ISS - Pass Details

Date: 14 February 2018
Orbit: 402 x 406 km, 51.6° (Epoch: 18 June)

Event Time Altitude Azimuth Distance (km) Brightness Sun altitude
Rises 11:00:15 0° 237° (WSW) 2,320 0.0 39.2°
Reaches altitude 10° 11:02:24 10° 244° (WSW) 1,460 -1.0 39.5°
Maximum altitude 11:05:32 43° 318° (NW) 576 -3.1 39.8°
Drops below altitude 10° 11:08:41 10° 32° (NNE) 1,460 -1.1 40.2°
Sets 11:10:50 0° 39° (NE) 2,320 -0.1 40.4°
